| time (UTC) | temp F | wind direction | speed MPH | gust MPH | rain 1hr in | rain 24hr in | rain mn in | humidity % | barometer mb |
| 20260507120041 | 46 | 72 | 1.0 | 4.0 | 0.00 | 0.00 | 0.00 | 57 | 1016.4 |
| 20260507115532 | 46 | 142 | 0.0 | 5.0 | 0.00 | 0.00 | 0.00 | 60 | 1016.5 |
| 20260507115030 | 45 | 0 | 0.0 | 6.0 | 0.00 | 0.00 | 0.00 | 61 | 1016.5 |
| 20260507114559 | 45 | 26 | 2.0 | 6.0 | 0.00 | 0.00 | 0.00 | 60 | 1016.5 |
| 20260507114030 | 45 | 134 | 1.0 | 6.0 | 0.00 | 0.00 | 0.00 | 61 | 1016.4 |
| 20260507113531 | 45 | 26 | 1.0 | 8.0 | 0.00 | 0.00 | 0.00 | 60 | 1016.4 |
| 20260507113104 | 46 | 0 | 1.0 | 8.0 | 0.00 | 0.00 | 0.00 | 60 | 1016.4 |
| 20260507112532 | 46 | 58 | 2.0 | 8.0 | 0.00 | 0.00 | 0.00 | 59 | 1016.3 |
| 20260507112032 | 46 | 79 | 1.0 | 13.0 | 0.00 | 0.00 | 0.00 | 57 | 1016.3 |
| 20260507111545 | 46 | 123 | 2.0 | 13.0 | 0.00 | 0.00 | 0.00 | 54 | 1016.2 |
| 20260507111029 | 46 | 79 | 3.0 | 13.0 | 0.00 | 0.00 | 0.00 | 54 | 1016.1 |
| 20260507110529 | 46 | 60 | 0.0 | 4.0 | 0.00 | 0.00 | 0.00 | 61 | 1016.0 |
| 20260507110047 | 46 | 76 | 2.0 | 5.0 | 0.00 | 0.00 | 0.00 | 57 | 1015.9 |
| 20260507105530 | 46 | 285 | 1.0 | 5.0 | 0.00 | 0.00 | 0.00 | 56 | 1015.8 |
| 20260507105032 | 45 | 46 | 1.0 | 4.0 | 0.00 | 0.00 | 0.00 | 54 | 1015.8 |
| 20260507104543 | 45 | 0 | 0.0 | 5.0 | 0.00 | 0.00 | 0.00 | 55 | 1015.9 |
| 20260507104031 | 44 | 0 | 1.0 | 5.0 | 0.00 | 0.00 | 0.00 | 58 | 1015.9 |
| 20260507103531 | 43 | 167 | 0.0 | 5.0 | 0.00 | 0.00 | 0.00 | 62 | 1015.8 |
| 20260507103053 | 43 | 29 | 2.0 | 6.0 | 0.00 | 0.00 | 0.00 | 65 | 1015.8 |
| 20260507102530 | 44 | 23 | 2.0 | 6.0 | 0.00 | 0.00 | 0.00 | 61 | 1015.7 |
| 20260507102031 | 44 | 34 | 1.0 | 6.0 | 0.00 | 0.00 | 0.00 | 56 | 1015.7 |
| 20260507101547 | 45 | 333 | 0.0 | 6.0 | 0.00 | 0.00 | 0.00 | 56 | 1015.7 |
| 20260507101032 | 45 | 18 | 1.0 | 6.0 | 0.00 | 0.00 | 0.00 | 55 | 1015.6 |
| 20260507100529 | 45 | 48 | 2.0 | 6.0 | 0.00 | 0.00 | 0.00 | 55 | 1015.5 |
| 20260507100045 | 44 | 293 | 2.0 | 6.0 | 0.00 | 0.00 | 0.00 | 57 | 1015.5 |
| 20260507095529 | 42 | 108 | 0.0 | 3.0 | 0.00 | 0.00 | 0.00 | 71 | 1015.4 |
| 20260507095120 | 41 | 0 | 1.0 | 6.0 | 0.00 | 0.00 | 0.00 | 70 | 1015.4 |
| 20260507094543 | 41 | 59 | 1.0 | 6.0 | 0.00 | 0.00 | 0.00 | 71 | 1015.5 |
| 20260507094029 | 42 | 103 | 1.0 | 4.0 | 0.00 | 0.00 | 0.00 | 70 | 1015.4 |
| 20260507093529 | 42 | 0 | 1.0 | 3.0 | 0.00 | 0.00 | 0.00 | 70 | 1015.6 |
| 20260507093041 | 41 | 61 | 0.0 | 3.0 | 0.00 | 0.00 | 0.00 | 71 | 1015.4 |
| 20260507092531 | 42 | 71 | 1.0 | 3.0 | 0.00 | 0.00 | 0.00 | 71 | 1015.4 |
| 20260507092029 | 42 | 0 | 0.0 | 4.0 | 0.00 | 0.00 | 0.00 | 72 | 1015.4 |
| 20260507091543 | 42 | 44 | 1.0 | 4.0 | 0.00 | 0.00 | 0.00 | 71 | 1015.2 |
| 20260507091031 | 42 | 0 | 0.0 | 4.0 | 0.00 | 0.00 | 0.00 | 71 | 1015.2 |
| 20260507090530 | 42 | 0 | 0.0 | 6.0 | 0.00 | 0.00 | 0.00 | 72 | 1015.2 |
| 20260507090045 | 42 | 14 | 1.0 | 6.0 | 0.00 | 0.00 | 0.00 | 71 | 1015.3 |
| 20260507085531 | 42 | 0 | 2.0 | 7.0 | 0.00 | 0.00 | 0.00 | 70 | 1015.2 |
| 20260507085030 | 42 | 23 | 2.0 | 7.0 | 0.00 | 0.00 | 0.00 | 70 | 1015.2 |
| 20260507084546 | 43 | 359 | 0.0 | 3.0 | 0.00 | 0.00 | 0.00 | 71 | 1015.2 |
| 20260507084030 | 42 | 0 | 0.0 | 3.0 | 0.00 | 0.00 | 0.00 | 71 | 1015.1 |
| 20260507083532 | 43 | 0 | 0.0 | 4.0 | 0.00 | 0.00 | 0.00 | 68 | 1015.2 |
| 20260507083041 | 43 | 98 | 1.0 | 4.0 | 0.00 | 0.00 | 0.00 | 68 | 1015.0 |
| 20260507082529 | 44 | 30 | 1.0 | 4.0 | 0.00 | 0.00 | 0.00 | 68 | 1015.0 |
| 20260507082028 | 44 | 58 | 2.0 | 4.0 | 0.00 | 0.00 | 0.00 | 68 | 1014.9 |
| 20260507081553 | 44 | 46 | 2.0 | 5.0 | 0.00 | 0.00 | 0.00 | 67 | 1014.9 |
| 20260507081030 | 43 | 125 | 1.0 | 6.0 | 0.00 | 0.00 | 0.00 | 69 | 1014.9 |
| 20260507080530 | 44 | 79 | 1.0 | 6.0 | 0.00 | 0.00 | 0.00 | 69 | 1014.8 |
| 20260507080044 | 43 | 60 | 1.0 | 3.0 | 0.00 | 0.00 | 0.00 | 68 | 1014.7 |
| 20260507075531 | 43 | 51 | 0.0 | 4.0 | 0.00 | 0.00 | 0.00 | 69 | 1014.8 |
| 20260507075030 | 43 | 109 | 1.0 | 4.0 | 0.00 | 0.00 | 0.00 | 68 | 1014.6 |
| 20260507074545 | 43 | 119 | 1.0 | 4.0 | 0.00 | 0.00 | 0.00 | 68 | 1014.6 |
| 20260507074032 | 42 | 246 | 2.0 | 5.0 | 0.00 | 0.00 | 0.00 | 69 | 1014.6 |
| 20260507073530 | 42 | 96 | 1.0 | 5.0 | 0.00 | 0.00 | 0.00 | 68 | 1014.5 |
| 20260507073042 | 43 | 38 | 1.0 | 4.0 | 0.00 | 0.00 | 0.00 | 71 | 1014.5 |
| 20260507072532 | 42 | 349 | 1.0 | 4.0 | 0.00 | 0.00 | 0.00 | 71 | 1014.6 |
| 20260507072033 | 41 | 108 | 1.0 | 4.0 | 0.00 | 0.00 | 0.00 | 68 | 1014.5 |
| 20260507071543 | 41 | 19 | 1.0 | 4.0 | 0.00 | 0.00 | 0.00 | 69 | 1014.5 |
| 20260507071033 | 42 | 0 | 1.0 | 4.0 | 0.00 | 0.00 | 0.00 | 68 | 1014.5 |
| 20260507070529 | 42 | 0 | 1.0 | 5.0 | 0.00 | 0.00 | 0.00 | 63 | 1014.5 |
| 20260507070045 | 41 | 0 | 2.0 | 5.0 | 0.00 | 0.00 | 0.00 | 63 | 1014.4 |
| 20260507065532 | 42 | 122 | 1.0 | 5.0 | 0.00 | 0.00 | 0.00 | 64 | 1014.4 |
| 20260507065031 | 41 | 126 | 1.0 | 5.0 | 0.00 | 0.00 | 0.00 | 64 | 1014.2 |
| 20260507064541 | 40 | 135 | 1.0 | 7.0 | 0.00 | 0.00 | 0.00 | 66 | 1014.3 |
| 20260507064029 | 40 | 104 | 3.0 | 7.0 | 0.00 | 0.00 | 0.00 | 65 | 1014.3 |
| 20260507063531 | 40 | 163 | 2.0 | 6.0 | 0.00 | 0.00 | 0.00 | 65 | 1014.3 |
| 20260507063043 | 40 | 126 | 3.0 | 6.0 | 0.00 | 0.00 | 0.00 | 66 | 1014.4 |
| 20260507062531 | 40 | 259 | 1.0 | 7.0 | 0.00 | 0.00 | 0.00 | 67 | 1014.2 |
| 20260507062032 | 39 | 150 | 3.0 | 8.0 | 0.00 | 0.00 | 0.00 | 68 | 1014.2 |
| 20260507061544 | 39 | 79 | 3.0 | 8.0 | 0.00 | 0.00 | 0.00 | 67 | 1014.2 |
| 20260507061028 | 39 | 117 | 2.0 | 6.0 | 0.00 | 0.00 | 0.00 | 69 | 1014.1 |
| 20260507060530 | 39 | 134 | 1.0 | 7.0 | 0.00 | 0.00 | 0.00 | 70 | 1014.1 |
| 20260507060044 | 38 | 145 | 4.0 | 7.0 | 0.00 | 0.00 | 0.00 | 70 | 1014.2 |
| 20260507055531 | 38 | 129 | 3.0 | 7.0 | 0.00 | 0.00 | 0.00 | 70 | 1014.0 |
| 20260507055031 | 38 | 157 | 2.0 | 6.0 | 0.00 | 0.00 | 0.00 | 69 | 1014.1 |
| 20260507054541 | 38 | 152 | 3.0 | 7.0 | 0.00 | 0.00 | 0.00 | 70 | 1014.0 |
| 20260507054030 | 38 | 155 | 2.0 | 7.0 | 0.00 | 0.00 | 0.00 | 72 | 1013.9 |
| 20260507053531 | 38 | 129 | 3.0 | 7.0 | 0.00 | 0.00 | 0.00 | 71 | 1014.0 |
| 20260507053041 | 38 | 136 | 3.0 | 7.0 | 0.00 | 0.00 | 0.00 | 71 | 1013.9 |
| 20260507052530 | 38 | 101 | 4.0 | 7.0 | 0.00 | 0.00 | 0.00 | 71 | 1013.9 |
| 20260507052031 | 38 | 236 | 2.0 | 4.0 | 0.00 | 0.00 | 0.00 | 74 | 1013.9 |
| 20260507051541 | 37 | 152 | 1.0 | 4.0 | 0.00 | 0.00 | 0.00 | 75 | 1013.7 |
| 20260507051030 | 37 | 0 | 1.0 | 3.0 | 0.00 | 0.00 | 0.00 | 77 | 1013.6 |
| 20260507050531 | 36 | 0 | 1.0 | 4.0 | 0.00 | 0.00 | 0.00 | 78 | 1013.6 |
| 20260507050047 | 35 | 130 | 1.0 | 4.0 | 0.00 | 0.00 | 0.00 | 78 | 1013.7 |
| 20260507045531 | 35 | 0 | 1.0 | 3.0 | 0.00 | 0.00 | 0.00 | 79 | 1013.6 |
| 20260507045028 | 35 | 0 | 0.0 | 2.0 | 0.00 | 0.00 | 0.00 | 80 | 1013.6 |
| 20260507044539 | 35 | 111 | 0.0 | 3.0 | 0.00 | 0.00 | 0.00 | 80 | 1013.5 |
| 20260507044028 | 35 | 0 | 1.0 | 3.0 | 0.00 | 0.00 | 0.00 | 80 | 1013.6 |
| 20260507043531 | 36 | 129 | 0.0 | 4.0 | 0.00 | 0.00 | 0.00 | 80 | 1013.5 |
| 20260507043055 | 36 | 220 | 1.0 | 4.0 | 0.00 | 0.00 | 0.00 | 79 | 1013.5 |
| 20260507042530 | 36 | 220 | 1.0 | 4.0 | 0.00 | 0.00 | 0.00 | 79 | 1013.4 |
| 20260507042029 | 37 | 148 | 1.0 | 4.0 | 0.00 | 0.00 | 0.00 | 78 | 1013.3 |
| 20260507041540 | 37 | 127 | 2.0 | 4.0 | 0.00 | 0.00 | 0.00 | 78 | 1013.4 |
| 20260507041030 | 37 | 158 | 1.0 | 3.0 | 0.00 | 0.00 | 0.00 | 78 | 1013.3 |
| 20260507040531 | 37 | 141 | 1.0 | 2.0 | 0.00 | 0.00 | 0.00 | 79 | 1013.4 |
| 20260507040041 | 36 | 0 | 0.0 | 2.0 | 0.00 | 0.00 | 0.00 | 81 | 1013.4 |
| 20260507035531 | 35 | 0 | 0.0 | 2.0 | 0.00 | 0.00 | 0.00 | 83 | 1013.3 |
| 20260507035030 | 35 | 0 | 0.0 | 2.0 | 0.00 | 0.00 | 0.00 | 83 | 1013.4 |
| 20260507034542 | 34 | 0 | 0.0 | 3.0 | 0.00 | 0.00 | 0.00 | 84 | 1013.3 |
| 20260507034032 | 34 | 144 | 0.0 | 3.0 | 0.00 | 0.00 | 0.00 | 85 | 1013.3 |
| 20260507033529 | 33 | 114 | 1.0 | 4.0 | 0.00 | 0.00 | 0.00 | 85 | 1013.2 |
| 20260507033043 | 33 | 185 | 1.0 | 4.0 | 0.00 | 0.00 | 0.00 | 86 | 1013.2 |
| 20260507032533 | 32 | 146 | 1.0 | 3.0 | 0.00 | 0.00 | 0.00 | 87 | 1013.2 |
| 20260507032032 | 32 | 141 | 1.0 | 3.0 | 0.00 | 0.00 | 0.00 | 88 | 1013.2 |
| 20260507031548 | 32 | 142 | 1.0 | 3.0 | 0.00 | 0.00 | 0.00 | 89 | 1013.3 |
| 20260507031033 | 31 | 254 | 0.0 | 3.0 | 0.00 | 0.00 | 0.00 | 90 | 1013.1 |
| 20260507030533 | 31 | 13 | 1.0 | 3.0 | 0.00 | 0.00 | 0.00 | 90 | 1013.2 |
| 20260507030042 | 31 | 139 | 1.0 | 4.0 | 0.00 | 0.00 | 0.00 | 90 | 1013.2 |
| 20260507025530 | 31 | 179 | 1.0 | 4.0 | 0.00 | 0.00 | 0.00 | 90 | 1013.1 |
| 20260507025035 | 31 | 0 | 0.0 | 3.0 | 0.00 | 0.00 | 0.00 | 90 | 1013.2 |
| 20260507024552 | 31 | 132 | 1.0 | 4.0 | 0.00 | 0.00 | 0.00 | 90 | 1013.2 |
| 20260507024034 | 31 | 127 | 1.0 | 4.0 | 0.00 | 0.00 | 0.00 | 90 | 1013.0 |
| 20260507023533 | 31 | 138 | 1.0 | 4.0 | 0.00 | 0.00 | 0.00 | 90 | 1013.1 |
| 20260507023052 | 31 | 212 | 0.0 | 4.0 | 0.00 | 0.00 | 0.00 | 90 | 1013.1 |
| 20260507022531 | 31 | 167 | 1.0 | 4.0 | 0.00 | 0.00 | 0.00 | 90 | 1013.1 |
| 20260507022035 | 31 | 136 | 1.0 | 3.0 | 0.00 | 0.00 | 0.00 | 91 | 1013.1 |
| 20260507021543 | 31 | 129 | 1.0 | 4.0 | 0.00 | 0.00 | 0.00 | 91 | 1013.0 |
| 20260507021033 | 31 | 0 | 1.0 | 4.0 | 0.00 | 0.00 | 0.00 | 91 | 1013.0 |
| 20260507020531 | 31 | 0 | 1.0 | 4.0 | 0.00 | 0.00 | 0.00 | 92 | 1013.0 |
| 20260507020057 | 31 | 169 | 1.0 | 4.0 | 0.00 | 0.00 | 0.00 | 92 | 1013.0 |
| 20260507015531 | 31 | 157 | 1.0 | 5.0 | 0.00 | 0.00 | 0.00 | 92 | 1013.1 |
| 20260507015031 | 31 | 164 | 1.0 | 5.0 | 0.00 | 0.00 | 0.00 | 92 | 1013.1 |
| 20260507014541 | 31 | 147 | 1.0 | 3.0 | 0.00 | 0.00 | 0.00 | 92 | 1013.1 |
| 20260507014031 | 31 | 245 | 0.0 | 3.0 | 0.00 | 0.00 | 0.00 | 92 | 1013.1 |
| 20260507013530 | 31 | 186 | 1.0 | 3.0 | 0.00 | 0.00 | 0.00 | 91 | 1013.1 |
| 20260507013047 | 31 | 143 | 1.0 | 3.0 | 0.00 | 0.00 | 0.00 | 92 | 1013.0 |
| 20260507012535 | 31 | 151 | 1.0 | 2.0 | 0.00 | 0.00 | 0.00 | 92 | 1013.0 |
| 20260507012031 | 31 | 151 | 1.0 | 3.0 | 0.00 | 0.00 | 0.00 | 92 | 1012.9 |
| 20260507011547 | 31 | 137 | 0.0 | 4.0 | 0.00 | 0.00 | 0.00 | 91 | 1012.8 |
| 20260507011031 | 31 | 141 | 1.0 | 4.0 | 0.00 | 0.00 | 0.00 | 91 | 1012.9 |
| 20260507010530 | 31 | 154 | 0.0 | 3.0 | 0.00 | 0.00 | 0.00 | 91 | 1012.9 |
| 20260507010044 | 32 | 138 | 1.0 | 3.0 | 0.00 | 0.00 | 0.00 | 91 | 1012.9 |
| 20260507005532 | 32 | 141 | 1.0 | 3.0 | 0.00 | 0.00 | 0.00 | 91 | 1013.0 |
| 20260507005031 | 32 | 128 | 0.0 | 6.0 | 0.00 | 0.00 | 0.00 | 91 | 1012.9 |
| 20260507004544 | 32 | 149 | 1.0 | 6.0 | 0.00 | 0.00 | 0.00 | 91 | 1012.9 |
| 20260507004031 | 32 | 160 | 1.0 | 5.0 | 0.00 | 0.00 | 0.00 | 91 | 1012.9 |
| 20260507003532 | 32 | 159 | 2.0 | 5.0 | 0.00 | 0.00 | 0.00 | 92 | 1012.9 |
| 20260507003049 | 32 | 166 | 1.0 | 4.0 | 0.00 | 0.00 | 0.00 | 92 | 1012.9 |
| 20260507002530 | 32 | 152 | 1.0 | 4.0 | 0.00 | 0.00 | 0.00 | 92 | 1012.8 |
| 20260507002031 | 32 | 146 | 0.0 | 2.0 | 0.00 | 0.00 | 0.00 | 92 | 1012.8 |
| 20260507001606 | 32 | 224 | 0.0 | 3.0 | 0.00 | 0.00 | 0.00 | 92 | 1012.8 |
| 20260507001035 | 32 | 0 | 0.0 | 3.0 | 0.00 | 0.00 | 0.00 | 92 | 1012.8 |
| 20260507000530 | 32 | 140 | 0.0 | 1.0 | 0.00 | 0.00 | 0.00 | 92 | 1012.8 |
| 20260507000043 | 32 | 0 | 0.0 | 2.0 | 0.00 | 0.00 | 0.00 | 92 | 1012.8 |
| 20260506235534 | 32 | 0 | 0.0 | 2.0 | 0.00 | 0.00 | 0.00 | 92 | 1012.8 |
| 20260506235031 | 32 | 0 | 0.0 | 3.0 | 0.00 | 0.00 | 0.00 | 92 | 1012.8 |
| 20260506234550 | 32 | 0 | 0.0 | 3.0 | 0.00 | 0.00 | 0.00 | 92 | 1012.8 |
| 20260506234032 | 32 | 0 | 0.0 | 4.0 | 0.00 | 0.00 | 0.00 | 92 | 1012.7 |
| 20260506233532 | 32 | 0 | 0.0 | 4.0 | 0.00 | 0.00 | 0.00 | 93 | 1012.7 |
| 20260506233043 | 32 | 151 | 1.0 | 5.0 | 0.00 | 0.00 | 0.00 | 93 | 1012.6 |
| 20260506232531 | 32 | 248 | 0.0 | 5.0 | 0.00 | 0.00 | 0.00 | 92 | 1012.6 |
| 20260506232031 | 32 | 148 | 0.0 | 4.0 | 0.00 | 0.00 | 0.00 | 93 | 1012.5 |
| 20260506231543 | 31 | 249 | 0.0 | 4.0 | 0.00 | 0.00 | 0.00 | 93 | 1012.5 |
| 20260506231029 | 31 | 201 | 0.0 | 2.0 | 0.00 | 0.00 | 0.00 | 92 | 1012.4 |
| 20260506230532 | 31 | 131 | 1.0 | 2.0 | 0.00 | 0.00 | 0.00 | 93 | 1012.5 |
| 20260506230053 | 31 | 200 | 0.0 | 3.0 | 0.00 | 0.00 | 0.00 | 93 | 1012.6 |
| 20260506225530 | 31 | 181 | 0.0 | 3.0 | 0.00 | 0.00 | 0.00 | 92 | 1012.7 |
| 20260506225029 | 31 | 150 | 1.0 | 2.0 | 0.00 | 0.00 | 0.00 | 92 | 1012.7 |
| 20260506224544 | 32 | 0 | 0.0 | 3.0 | 0.00 | 0.00 | 0.00 | 92 | 1012.7 |
| 20260506224029 | 32 | 0 | 0.0 | 3.0 | 0.00 | 0.00 | 0.00 | 92 | 1012.6 |
| 20260506223529 | 32 | 130 | 0.0 | 3.0 | 0.00 | 0.00 | 0.00 | 92 | 1012.7 |
| 20260506223041 | 32 | 209 | 1.0 | 2.0 | 0.00 | 0.00 | 0.00 | 92 | 1012.6 |
| 20260506222532 | 32 | 203 | 0.0 | 4.0 | 0.00 | 0.00 | 0.00 | 91 | 1012.6 |
| 20260506222030 | 32 | 236 | 1.0 | 4.0 | 0.00 | 0.00 | 0.00 | 92 | 1012.7 |
| 20260506221551 | 32 | 165 | 1.0 | 3.0 | 0.00 | 0.00 | 0.00 | 91 | 1012.7 |
| 20260506221031 | 32 | 209 | 0.0 | 3.0 | 0.00 | 0.00 | 0.00 | 91 | 1012.6 |
| 20260506220533 | 32 | 158 | 0.0 | 1.0 | 0.00 | 0.00 | 0.00 | 91 | 1012.6 |
| 20260506220043 | 33 | 162 | 0.0 | 0.0 | 0.00 | 0.00 | 0.00 | 91 | 1012.7 |
| 20260506215535 | 33 | 0 | 0.0 | 3.0 | 0.00 | 0.00 | 0.00 | 90 | 1012.7 |
| 20260506215030 | 33 | 0 | 0.0 | 3.0 | 0.00 | 0.00 | 0.00 | 90 | 1012.7 |
| 20260506214541 | 33 | 148 | 0.0 | 3.0 | 0.00 | 0.00 | 0.00 | 90 | 1012.6 |
| 20260506214033 | 34 | 0 | 0.0 | 3.0 | 0.00 | 0.00 | 0.00 | 90 | 1012.7 |
| 20260506213531 | 34 | 151 | 0.0 | 3.0 | 0.00 | 0.00 | 0.00 | 90 | 1012.7 |
| 20260506213040 | 34 | 0 | 0.0 | 3.0 | 0.00 | 0.00 | 0.00 | 90 | 1012.6 |
| 20260506212530 | 34 | 157 | 1.0 | 3.0 | 0.00 | 0.00 | 0.00 | 90 | 1012.6 |
| 20260506212032 | 34 | 113 | 1.0 | 3.0 | 0.00 | 0.00 | 0.00 | 90 | 1012.5 |
| 20260506210532 | 34 | 147 | 1.0 | 5.0 | 0.00 | 0.00 | 0.00 | 90 | 1012.4 |
| 20260506210054 | 34 | 146 | 1.0 | 3.0 | 0.00 | 0.00 | 0.00 | 89 | 1012.4 |
| 20260506205531 | 34 | 153 | 1.0 | 3.0 | 0.00 | 0.00 | 0.00 | 89 | 1012.2 |
| 20260506205030 | 34 | 192 | 1.0 | 3.0 | 0.00 | 0.00 | 0.00 | 89 | 1012.2 |
| 20260506204547 | 34 | 221 | 0.0 | 4.0 | 0.00 | 0.00 | 0.00 | 88 | 1012.2 |
| 20260506204030 | 34 | 285 | 0.0 | 4.0 | 0.00 | 0.00 | 0.00 | 88 | 1012.3 |
| 20260506203530 | 34 | 177 | 2.0 | 4.0 | 0.00 | 0.00 | 0.00 | 88 | 1012.3 |
| 20260506203043 | 34 | 203 | 1.0 | 4.0 | 0.00 | 0.00 | 0.00 | 88 | 1012.2 |
| 20260506202534 | 34 | 201 | 1.0 | 5.0 | 0.00 | 0.00 | 0.00 | 88 | 1012.3 |
| 20260506202032 | 35 | 182 | 1.0 | 5.0 | 0.00 | 0.00 | 0.00 | 88 | 1012.3 |
| 20260506201541 | 35 | 146 | 1.0 | 5.0 | 0.00 | 0.00 | 0.00 | 87 | 1012.3 |
| 20260506201032 | 35 | 198 | 1.0 | 4.0 | 0.00 | 0.00 | 0.00 | 87 | 1012.3 |
| 20260506200530 | 35 | 146 | 1.0 | 4.0 | 0.00 | 0.00 | 0.00 | 87 | 1012.3 |
| 20260506200040 | 35 | 134 | 0.0 | 3.0 | 0.00 | 0.00 | 0.00 | 87 | 1012.3 |
| 20260506195530 | 35 | 212 | 1.0 | 3.0 | 0.00 | 0.00 | 0.00 | 87 | 1012.3 |
| 20260506195030 | 35 | 143 | 0.0 | 3.0 | 0.00 | 0.00 | 0.00 | 86 | 1012.2 |
| 20260506194545 | 36 | 0 | 0.0 | 4.0 | 0.00 | 0.00 | 0.00 | 86 | 1012.1 |
| 20260506194031 | 36 | 0 | 1.0 | 5.0 | 0.00 | 0.00 | 0.00 | 85 | 1012.2 |
| 20260506193531 | 36 | 165 | 1.0 | 5.0 | 0.00 | 0.00 | 0.00 | 85 | 1012.3 |
| 20260506193048 | 36 | 159 | 0.0 | 3.0 | 0.00 | 0.00 | 0.00 | 85 | 1012.2 |
| 20260506192533 | 36 | 163 | 1.0 | 4.0 | 0.00 | 0.00 | 0.00 | 84 | 1012.2 |
| 20260506192028 | 36 | 0 | 1.0 | 4.0 | 0.00 | 0.00 | 0.00 | 84 | 1012.3 |
| 20260506191542 | 37 | 161 | 2.0 | 4.0 | 0.00 | 0.00 | 0.00 | 84 | 1012.1 |
| 20260506191032 | 37 | 207 | 1.0 | 3.0 | 0.00 | 0.00 | 0.00 | 83 | 1012.2 |
| 20260506190532 | 37 | 152 | 1.0 | 3.0 | 0.00 | 0.00 | 0.00 | 82 | 1012.2 |
| 20260506190040 | 37 | 218 | 1.0 | 3.0 | 0.00 | 0.00 | 0.00 | 81 | 1012.1 |
| 20260506185531 | 38 | 117 | 1.0 | 3.0 | 0.00 | 0.00 | 0.00 | 81 | 1012.1 |
| 20260506185031 | 38 | 160 | 0.0 | 3.0 | 0.00 | 0.00 | 0.00 | 80 | 1011.9 |
| 20260506184549 | 38 | 160 | 0.0 | 4.0 | 0.00 | 0.00 | 0.00 | 80 | 1011.9 |
| 20260506184033 | 38 | 146 | 1.0 | 5.0 | 0.00 | 0.00 | 0.00 | 80 | 1011.8 |
| 20260506183530 | 38 | 183 | 1.0 | 5.0 | 0.00 | 0.00 | 0.00 | 80 | 1011.8 |
| 20260506183045 | 39 | 119 | 2.0 | 5.0 | 0.00 | 0.00 | 0.00 | 80 | 1011.8 |
| 20260506182530 | 39 | 64 | 0.0 | 3.0 | 0.00 | 0.00 | 0.00 | 79 | 1011.8 |
| 20260506182030 | 39 | 221 | 0.0 | 3.0 | 0.00 | 0.00 | 0.00 | 79 | 1011.7 |
| 20260506181549 | 39 | 169 | 0.0 | 3.0 | 0.00 | 0.00 | 0.00 | 79 | 1011.5 |
| 20260506181033 | 39 | 0 | 0.0 | 3.0 | 0.00 | 0.00 | 0.00 | 80 | 1011.5 |
| 20260506180533 | 39 | 0 | 0.0 | 7.0 | 0.00 | 0.00 | 0.00 | 80 | 1011.5 |
| 20260506180040 | 39 | 153 | 2.0 | 9.0 | 0.00 | 0.00 | 0.00 | 80 | 1011.4 |
| 20260506175533 | 39 | 165 | 2.0 | 9.0 | 0.00 | 0.00 | 0.00 | 79 | 1011.4 |
| 20260506175031 | 40 | 228 | 2.0 | 9.0 | 0.00 | 0.00 | 0.00 | 76 | 1011.5 |
| 20260506174541 | 41 | 141 | 2.0 | 6.0 | 0.00 | 0.00 | 0.00 | 73 | 1011.5 |
| 20260506174031 | 42 | 166 | 1.0 | 5.0 | 0.00 | 0.00 | 0.00 | 64 | 1011.5 |
| 20260506173530 | 42 | 175 | 0.0 | 5.0 | 0.00 | 0.00 | 0.00 | 63 | 1011.3 |
| 20260506173046 | 42 | 111 | 2.0 | 5.0 | 0.00 | 0.00 | 0.00 | 63 | 1011.3 |
| 20260506172530 | 42 | 355 | 0.0 | 4.0 | 0.00 | 0.00 | 0.00 | 63 | 1011.2 |
| 20260506172030 | 42 | 127 | 1.0 | 4.0 | 0.00 | 0.00 | 0.00 | 63 | 1011.2 |
| 20260506171545 | 42 | 151 | 2.0 | 5.0 | 0.00 | 0.00 | 0.00 | 64 | 1011.1 |
| 20260506171030 | 42 | 84 | 1.0 | 5.0 | 0.00 | 0.00 | 0.00 | 67 | 1011.0 |
| 20260506170531 | 43 | 229 | 1.0 | 3.0 | 0.00 | 0.00 | 0.00 | 67 | 1010.8 |
| 20260506170052 | 42 | 0 | 0.0 | 3.0 | 0.00 | 0.00 | 0.00 | 69 | 1010.8 |
| 20260506165532 | 42 | 155 | 1.0 | 3.0 | 0.00 | 0.01 | 0.00 | 68 | 1010.8 |
| 20260506165030 | 42 | 0 | 1.0 | 11.0 | 0.00 | 0.01 | 0.00 | 68 | 1010.8 |
| 20260506164554 | 42 | 134 | 3.0 | 11.0 | 0.00 | 0.01 | 0.00 | 67 | 1010.8 |
| 20260506164031 | 42 | 162 | 2.0 | 9.0 | 0.00 | 0.01 | 0.00 | 67 | 1010.8 |
| 20260506163530 | 42 | 97 | 3.0 | 9.0 | 0.00 | 0.01 | 0.00 | 66 | 1010.9 |
| 20260506163045 | 42 | 49 | 2.0 | 7.0 | 0.00 | 0.01 | 0.00 | 67 | 1011.0 |
| 20260506162530 | 42 | 108 | 2.0 | 5.0 | 0.00 | 0.01 | 0.00 | 66 | 1011.0 |
| 20260506162031 | 42 | 302 | 1.0 | 7.0 | 0.00 | 0.01 | 0.00 | 66 | 1010.9 |
| 20260506161540 | 42 | 0 | 1.0 | 7.0 | 0.00 | 0.01 | 0.00 | 66 | 1011.0 |
| 20260506161029 | 42 | 0 | 1.0 | 9.0 | 0.00 | 0.01 | 0.00 | 66 | 1011.0 |
| 20260506160531 | 43 | 41 | 2.0 | 9.0 | 0.00 | 0.01 | 0.00 | 64 | 1011.0 |
| 20260506160055 | 44 | 307 | 2.0 | 6.0 | 0.00 | 0.01 | 0.00 | 64 | 1011.0 |
| 20260506155532 | 44 | 345 | 1.0 | 6.0 | 0.00 | 0.01 | 0.00 | 65 | 1011.0 |
| 20260506155030 | 43 | 288 | 1.0 | 8.0 | 0.00 | 0.01 | 0.00 | 64 | 1010.9 |
| 20260506154544 | 44 | 155 | 1.0 | 8.0 | 0.00 | 0.01 | 0.00 | 63 | 1011.0 |
| 20260506154030 | 44 | 229 | 2.0 | 6.0 | 0.00 | 0.01 | 0.00 | 62 | 1010.9 |
| 20260506153530 | 45 | 120 | 2.0 | 6.0 | 0.00 | 0.01 | 0.00 | 62 | 1011.0 |
| 20260506153043 | 45 | 312 | 2.0 | 5.0 | 0.00 | 0.01 | 0.00 | 60 | 1010.9 |
| 20260506152530 | 45 | 303 | 1.0 | 7.0 | 0.00 | 0.01 | 0.00 | 59 | 1010.9 |
| 20260506152029 | 45 | 5 | 1.0 | 7.0 | 0.00 | 0.01 | 0.00 | 59 | 1011.0 |
| 20260506151544 | 45 | 213 | 2.0 | 7.0 | 0.00 | 0.01 | 0.00 | 59 | 1010.9 |
| 20260506151032 | 46 | 77 | 1.0 | 5.0 | 0.00 | 0.01 | 0.00 | 57 | 1010.9 |
| 20260506150530 | 46 | 0 | 0.0 | 4.0 | 0.00 | 0.01 | 0.00 | 59 | 1010.8 |
| 20260506150049 | 46 | 323 | 1.0 | 8.0 | 0.00 | 0.01 | 0.00 | 59 | 1011.0 |
| 20260506145530 | 45 | 0 | 1.0 | 8.0 | 0.00 | 0.02 | 0.00 | 61 | 1011.0 |
| 20260506145030 | 45 | 314 | 1.0 | 5.0 | 0.00 | 0.02 | 0.00 | 61 | 1011.0 |
| 20260506144542 | 45 | 44 | 1.0 | 5.0 | 0.00 | 0.02 | 0.00 | 61 | 1010.9 |
| 20260506144028 | 45 | 128 | 1.0 | 5.0 | 0.00 | 0.02 | 0.00 | 61 | 1011.0 |
| 20260506143531 | 45 | 337 | 2.0 | 5.0 | 0.00 | 0.02 | 0.00 | 61 | 1010.9 |
| 20260506143042 | 45 | 132 | 1.0 | 5.0 | 0.00 | 0.02 | 0.00 | 65 | 1010.9 |
| 20260506142530 | 45 | 212 | 2.0 | 5.0 | 0.00 | 0.02 | 0.00 | 65 | 1011.0 |
| 20260506142030 | 45 | 96 | 1.0 | 6.0 | 0.00 | 0.02 | 0.00 | 68 | 1010.9 |
| 20260506141544 | 44 | 336 | 1.0 | 6.0 | 0.00 | 0.02 | 0.00 | 66 | 1010.9 |
| 20260506141030 | 43 | 0 | 2.0 | 5.0 | 0.00 | 0.02 | 0.00 | 67 | 1011.0 |
| 20260506140533 | 43 | 30 | 1.0 | 5.0 | 0.00 | 0.02 | 0.00 | 70 | 1011.1 |
| 20260506140041 | 42 | 70 | 0.0 | 3.0 | 0.00 | 0.02 | 0.00 | 75 | 1011.2 |
| 20260506135529 | 41 | 53 | 0.0 | 3.0 | 0.00 | 0.02 | 0.00 | 78 | 1011.1 |
| 20260506135033 | 41 | 75 | 1.0 | 3.0 | 0.00 | 0.02 | 0.00 | 78 | 1011.1 |
| 20260506134545 | 41 | 0 | 1.0 | 6.0 | 0.00 | 0.02 | 0.00 | 77 | 1011.2 |
| 20260506134030 | 41 | 174 | 0.0 | 6.0 | 0.00 | 0.02 | 0.00 | 75 | 1011.3 |
| 20260506133530 | 42 | 191 | 1.0 | 5.0 | 0.00 | 0.02 | 0.00 | 73 | 1011.2 |
| 20260506133056 | 43 | 120 | 1.0 | 5.0 | 0.00 | 0.02 | 0.00 | 71 | 1011.2 |
| 20260506132532 | 43 | 192 | 1.0 | 3.0 | 0.00 | 0.02 | 0.00 | 70 | 1011.0 |
| 20260506132030 | 42 | 63 | 0.0 | 4.0 | 0.00 | 0.02 | 0.00 | 69 | 1011.0 |
| 20260506131542 | 43 | 195 | 1.0 | 4.0 | 0.00 | 0.02 | 0.00 | 69 | 1010.9 |
| 20260506131030 | 43 | 236 | 1.0 | 4.0 | 0.00 | 0.02 | 0.00 | 68 | 1010.9 |
| 20260506130533 | 44 | 45 | 1.0 | 5.0 | 0.00 | 0.02 | 0.00 | 68 | 1010.9 |
| 20260506130041 | 44 | 55 | 1.0 | 5.0 | 0.00 | 0.02 | 0.00 | 69 | 1010.9 |
| 20260506125531 | 44 | 98 | 2.0 | 4.0 | 0.00 | 0.02 | 0.00 | 70 | 1011.0 |
| 20260506125030 | 43 | 32 | 1.0 | 4.0 | 0.00 | 0.02 | 0.00 | 72 | 1010.9 |
| 20260506124541 | 43 | 131 | 0.0 | 3.0 | 0.00 | 0.02 | 0.00 | 72 | 1010.8 |
| 20260506124029 | 43 | 0 | 0.0 | 5.0 | 0.00 | 0.02 | 0.00 | 70 | 1010.9 |
| 20260506123531 | 43 | 148 | 1.0 | 5.0 | 0.00 | 0.02 | 0.00 | 70 | 1010.8 |
| 20260506123044 | 43 | 330 | 1.0 | 6.0 | 0.00 | 0.02 | 0.00 | 68 | 1010.9 |
| 20260506122530 | 44 | 182 | 1.0 | 6.0 | 0.00 | 0.02 | 0.00 | 66 | 1010.8 |
| 20260506122030 | 44 | 79 | 1.0 | 6.0 | 0.00 | 0.02 | 0.00 | 63 | 1010.8 |
| 20260506121553 | 44 | 311 | 1.0 | 3.0 | 0.00 | 0.02 | 0.00 | 58 | 1010.6 |
| 20260506121030 | 44 | 223 | 1.0 | 8.0 | 0.00 | 0.02 | 0.00 | 57 | 1010.7 |
| 20260506120530 | 44 | 23 | 2.0 | 8.0 | 0.00 | 0.02 | 0.00 | 56 | 1010.7 |